DELTA 1 DEB, 42083

Orbit data source: Space-Track

DELTA 1 DEB, 42083 is space debris in SSO originally from a launch on Sun, 15 Dec 1968 UTC launched from the Air Force Western Test Range (AFWTR). Debris objects in space refer to the collection of defunct objects orbiting the Earth. Examples of debris include non-operational satellites, rocket bodies, and fragments generated from explosions, collisions, or faulty payload assembly.

Loading next visibility...
DELTA 1 DEB details
Identifier
42083, 1968-114K
Orbit
SSO
Last TLE update5 days ago
Origin
Flag of USGSFC (US)
ManufacturerAerojet
MissionSpacecraft
Bus & MotorUnknown
MassUnknown
Launch date (UTC)
1968-12-15 (56 years ago)
Launch vehicleUnknown
Launch site
Air Force Western Test Range (AFWTR)
Object type
Payload
Rocket body
Debris
Shape & HBRUnknown
Radar Cross SectionSmall (<0.1 m²)

Expand to show TLE details & history

TLE from 5 days ago
0 DELTA 1 DEB
1 42083U 68114K   24357.17192312  .00000652  00000-0  18878-2 0  9991
2 42083 101.8684 332.1059 0280727 165.1036 265.4140 13.01933223977707
Epoch: 2024-12-22T04:07Z
Definitive object data (Epoch: 2024-12-22T04:07:34.157Z)
Latitude64.63736°
Longitude152.82591°
Altitude1,288.591 km
Speed7.207 km/s
True Right ascension20h 23m 43s
True Declination64° 30' 48"
Sunlit
Object was in daylight at TLE epoch
Visualization TLE readout
Latitude-77.52767°
Longitude-66.89444°
Altitude1,352.119 km
Speed7.149 km/s
Apparent Right ascension06h 47m 29s
Apparent Declination-60° 46' 07"
Sunlit
Object is in daylight
Visualization observer readout
Local Sidereal Time19:08:39
Azimuth172.814° S
Elevation-68.892°
Doppler factor1
Orbital elements
Apogee altitude1,466.207 km
Perigee altitude1,037.81 km
Semi-major axis7,630.145 km
Eccentricity0.0280727
Inclination101.8684°
RAAN332.1059°
Arg. of periapsis165.1036°
True anomaly262.21803°
Mean anomaly265.414°
Eccentric anomaly263.81492°
Mean motion3.25645 °/min
BSTAR0.0018878
Orbital period110.55 mins
Loading maneuver chart data...
Loading historical data...
Loading historical data...
Loading historical data...
Loading historical data...
Loading historical data...
Loading historical data...
Loading historical data...

DELTA 1 DEB Visibility forecast

Observer location: undefined°, undefined

Span
Click to sort rows by Start time (UTC) header in descending order
Start Az.
Max El. time (UTC)
Max El. Az.
Max El.
End time (UTC)
End Az.
9 mins2024-12-26 20:27:56.656Z89.786° E2024-12-26 20:31:56.656Z57.312° ENE17.527°2024-12-26 20:36:56.656Z14.211° NNE
14 mins2024-12-26 22:12:56.656Z156.84° SSE2024-12-26 22:19:56.656Z89.826° E44.824°2024-12-26 22:26:56.656Z344.102° N
9 mins2024-12-27 00:04:56.656Z229.761° WSW2024-12-27 00:08:56.656Z262.735° W18.046°2024-12-27 00:13:56.656Z305.423° NW
11 mins2024-12-27 11:38:56.656Z18.808° NNE2024-12-27 11:43:56.656Z71.413° E44.915°2024-12-27 11:49:56.656Z197.627° SSW
5 mins2024-12-27 13:29:56.656Z327.754° NNW2024-12-27 13:31:56.656Z306.564° NW15.672°2024-12-27 13:34:56.656Z276.248° WNW
|